Regional Weather Roundup
Issued by NWS

Home | Current Version | Previous Version | Graphics & Text | Print | Product List | Glossary Off
Versions: 1 2 3 4 5 6 7 8 9 10 11 12 13 14 15 16 17 18 19 20 21 22 23 24 25 26 27 28 29 30 31 32 33 34 35 36 37 38 39 40 41 42 43 44 45 46 47 48 49 50

000
ASUS43 KTOP 290859
RWRKS

WEATHER ROUNDUP FOR KANSAS
NATIONAL WEATHER SERVICE GOODLAND KS
400 AM CDT FRI JUL 29 2016

NOTE:  "FAIR" INDICATES FEW OR NO CLOUDS BELOW 12,000 FEET WITH NO
SIGNIFICANT WEATHER AND/OR OBSTRUCTIONS TO VISIBILITY.

KSZ001>006-013>018-027>032-041>047-291000-
NORTHWEST KANSAS

CITY           SKY/WX    TMP DP  RH WIND       PRES   REMARKS
GOODLAND       CLOUDY    62  60  93 CALM      30.14F
HAYS           CLOUDY    66  57  72 NW7       30.03R
HILL CITY      CLOUDY    68  67  96 W6        30.05F FOG
RUSSELL        CLOUDY    66  64  93 W7        29.99F
$$

KSZ061>065-074>080-084>089-291000-
SOUTHWEST KANSAS

CITY           SKY/WX    TMP DP  RH WIND       PRES   REMARKS
DODGE CITY     CLOUDY    67  65  93 E6        30.04F
ELKHART          N/A     67  59  76 W7          N/A
GARDEN CITY    CLOUDY    67  65  93 NE7       30.04F
GREAT BEND     CLOUDY    66  59  77 CALM      30.01F
LIBERAL        CLOUDY    68  57  68 CALM      30.07F
$$

KSZ066>073-081>083-090>101-291000-
SOUTHEAST KANSAS

CITY           SKY/WX    TMP DP  RH WIND       PRES   REMARKS
CHANUTE        CLEAR     69  66  90 N5        29.93F
COFFEYVILLE    PTCLDY    70  69  97 CALM      29.92F
HUTCHINSON     MOCLDY    68  66  93 NW9       29.98S
NEWTON         CLOUDY    68  67  96 N6        29.96F
PARSONS        CLOUDY    69  67  93 CALM      29.94F
WICHITA INTL   CLOUDY    70  68  93 CALM      29.97S THUNDER
WICHITA JABRA  MOCLDY    69  68  96 N5        29.96S
WINFIELD       PTCLDY    71  64  78 E6        29.95F
$$

KSZ007>012-019>026-033>040-048>060-102>105-291000-
NORTHEAST KANSAS

CITY           SKY/WX    TMP DP  RH WIND       PRES   REMARKS
CONCORDIA      CLOUDY    66  65  96 N6        29.99F
EMPORIA        PTCLDY    67  65  93 CALM      29.94F
LAWRENCE       CLEAR     67  65  93 NW7       29.95F
MANHATTAN      PTCLDY    67  65  93 N3        29.95F
OLATHE IND     PTCLDY    68  67  96 NW9       29.95F
OLATHE EXE     CLEAR     69  67  93 N6        29.94F
SALINA         MOCLDY    69  66  90 NW5       29.98F
TOPEKA BILLARD CLEAR     68  65  90 CALM      29.95F
TOPEKA FORBES  PTCLDY    69  66  90 N5        29.95F
$$



USA.gov is the U.S. government's official web portal to all federal, state and local government web resources and services.